Location: Unspecified
(0.0000°N, 0.0000°E)
Time: 05:22:33
(UTC+00:00)

Explorer 11/Cluster Stage 4 - Visible Passes

Search period start: 31 July 2014 00:00
Search period end: 10 August 2014 00:00
Orbit: 468 x 1284 km, 28.8° (Epoch: 30 July)

Date Brightness Start Highest point End Pass type
(mag) Time Alt. Az. Time Alt. Az. Time Alt. Az.
31 Jul 8.3 05:21:26 10° SSW 05:24:36 19° SSE 05:28:13 10° ESE visible
31 Jul 7.8 20:02:28 10° W 20:08:12 33° SSW 20:08:36 32° SSW visible
01 Aug 7.9 05:14:39 10° SSW 05:18:07 24° SSE 05:22:10 10° E visible
01 Aug 8.1 19:56:11 10° W 20:01:38 27° SSW 20:02:45 25° SSW visible
02 Aug 7.4 05:08:27 13° SSW 05:11:38 31° SSE 05:15:58 10° E visible
02 Aug 8.4 19:50:01 10° W 19:55:05 22° SSW 19:56:54 19° S visible
03 Aug 6.8 05:02:38 19° SSW 05:05:10 42° SSE 05:09:39 10° ENE visible
03 Aug 8.7 19:43:59 10° WSW 19:48:33 18° SSW 19:51:02 15° S visible
04 Aug 6.1 04:56:50 28° SW 04:58:42 59° SSE 05:03:13 10° ENE visible
04 Aug 8.9 19:38:09 10° WSW 19:42:02 15° SSW 19:45:10 11° S visible
05 Aug 5.7 04:51:01 42° SW 04:52:17 86° SSE 04:56:43 10° ENE visible
05 Aug 9.1 19:32:33 10° SW 19:35:33 13° SSW 19:38:21 10° S visible
06 Aug 5.7 04:45:12 52° W 04:45:53 64° NNW 04:50:07 10° NE visible
06 Aug 9.3 19:27:30 10° SW 19:29:07 11° SSW 19:30:41 10° SSW visible
07 Aug 6.2 04:39:22 42° NW 04:39:30 42° NNW 04:43:25 10° NE visible
08 Aug 7.0 04:33:31 28° NNW 04:33:31 28° NNW 04:36:37 10° NNE visible
09 Aug 7.6 04:27:38 19° N 04:27:38 19° N 04:29:41 10° NNE visible
